Location: St. Louis
(38.6270°N, 90.1994°W)
Time: 15:04:59
(UTC-05:00)

ISS - Pass Details

Date: 24 March 2014
Orbit: 402 x 404 km, 51.6° (Epoch: 27 May)

Event Time Altitude Azimuth Distance (km) Brightness Sun altitude
Exits shadow 04:54:20 10° 356° (N) 1,489 -0.3 -24.3°
Enters shadow 05:51:38 -72° 253° (WSW) 12,591 4.2 -13.7°
Maximum altitude 06:31:52 10° 11° (NNE) 1,454 -0.3 -5.9°
